Tracking 25620 objects as of 18-May-2022
HD Live streaming from Space Station
objects crossing your sky now

NOAA 5

Track NOAA 5 now!
10-day predictions
NOAA 5 is classified as:


NORAD ID: 9057
Int'l Code: 1976-077A
Perigee: 1,515.6 km
Apogee: 1,530.8 km
Inclination: 102.1 °
Period: 116.3 minutes
Semi major axis: 7894 km
RCS: 1.7201 m2 (large)
Launch date: July 29, 1976
Source: United States (US)
Launch site: AIR FORCE WESTERN TEST RANGE (AFWTR)
aabbcc
Your satellite tracking list
Your tracking list is empty




NASA's NSSDC Master Catalog

Two Line Element Set (TLE):
1 09057U 76077A   22138.50326536 -.00000037  00000-0  60912-4 0  9997
2 09057 102.0968 106.8132 0009598 192.0049 279.0578 12.37770390 70033
Source of the keplerian elements: AFSPC